Wind_Speed
4 5 7 7 6 6 7 7 7 8 8 8 8 8 7 7 7 7 7 8 8 8 8 8 8 8 8 7 7 7 6 5 5 5 4 3 2 2 2 2 2 2 2 1 1 1 1 1 1 0 1 1 2 3 3 4 3 4 4 4 5 5 5 6 6 5 3 3 4 3 2 2 1 2 4 5 6 5 7 8 8 9 6 5 6
3 4 5 7 7 6 6 6 7 7 8 8 8 8 8 7 7 7 8 8 8 8 8 9 9 8 8 8 7 7 6 6 5 4 4 3 2 1 1 2 2 2 2 1 1 0 1 1 1 1 0 2 3 3 5 5 4 4 3 4 4 4 4 4 4 4 3 2 1 1 1 1 1 3 5 6 5 5 7 9 9 8 7 6 6
3 4 4 6 6 6 6 6 7 7 7 7 7 7 8 8 7 8 8 8 8 8 8 9 9 9 8 8 8 7 7 6 5 5 4 4 2 2 1 1 2 2 2 1 1 0 1 1 1 1 0 2 3 4 5 5 4 4 3 3 3 3 2 2 2 3 3 3 2 2 2 1 2 2 7 7 6 6 6 8 8 7 7 7 6
3 3 5 6 5 5 5 6 6 7 7 7 7 7 8 8 8 8 8 9 8 9 9 9 10 10 9 8 8 8 7 6 5 5 4 4 3 2 2 2 2 2 1 1 1 1 1 1 2 1 1 1 2 3 5 5 4 3 2 2 2 1 1 1 1 2 2 3 3 4 5 5 5 3 6 9 9 8 6 6 7 6 7 8 7
3 3 5 6 5 5 5 6 6 7 8 8 8 7 8 8 8 8 8 8 9 9 10 10 10 10 10 9 8 8 8 7 6 4 3 3 3 2 2 2 2 2 1 1 1 1 2 1 2 1 1 1 1 2 3 4 4 2 1 1 1 1 0 1 1 2 3 3 4 5 6 8 9 7 6 9 11 10 7 6 5 6 8 8 7
4 5 5 5 6 6 6 7 8 8 8 8 8 8 8 8 8 8 8 9 9 10 11 11 11 11 11 10 9 8 8 8 7 5 3 3 2 2 2 2 2 2 1 2 2 2 2 2 2 2 2 1 0 0 2 3 3 3 2 2 1 1 0 1 2 3 4 5 6 7 7 10 11 12 10 9 10 11 9 8 6 7 8 8 8
5 6 6 6 7 8 8 8 9 9 9 9 8 8 8 8 8 8 8 9 10 10 10 10 10 11 11 11 10 8 8 8 8 7 5 3 3 2 3 3 2 2 2 3 3 3 3 3 3 3 3 2 1 1 2 3 4 4 4 3 3 3 2 2 3 4 5 7 8 8 9 9 11 14 14 12 10 11 10 9 7 7 8 8 8
5 6 6 7 8 9 9 9 9 9 9 9 8 8 9 9 9 9 9 10 10 10 10 10 10 10 11 11 11 9 8 8 8 8 6 4 3 3 3 3 3 3 3 4 4 4 3 3 3 3 2 2 2 2 3 4 4 5 5 5 5 5 5 5 5 6 7 8 8 8 9 8 9 14 16 15 11 10 10 9 8 7 7 8 8
5 6 7 8 10 10 9 10 9 9 9 9 9 9 9 9 9 9 9 9 10 10 10 10 10 10 10 11 11 10 9 8 8 8 6 5 4 3 3 3 4 4 4 4 4 3 3 2 2 2 2 3 3 3 3 4 5 6 6 6 6 7 7 8 8 9 9 9 9 7 8 8 9 12 15 16 12 11 11 10 9 7 7 8 8
6 7 9 10 10 9 9 9 9 9 9 10 10 10 9 9 9 8 8 9 9 9 10 10 10 10 11 11 11 11 9 8 8 8 7 6 5 5 4 4 5 5 5 4 4 4 3 3 3 3 3 4 4 4 4 4 5 5 6 7 8 8 8 9 9 10 11 10 10 9 9 9 9 9 12 16 13 11 12 11 10 9 8 9 9
7 9 11 11 10 9 9 9 9 9 9 9 10 10 9 9 9 9 9 9 9 9 10 10 11 11 11 11 12 11 10 9 9 9 8 7 6 5 5 5 4 4 5 5 5 5 4 4 4 4 4 5 5 5 5 5 5 5 6 7 8 8 8 9 10 11 11 11 10 10 10 10 10 10 11 15 14 11 12 12 11 10 10 9 9
7 9 10 10 10 10 10 10 10 10 10 11 11 11 10 11 11 10 11 11 11 11 11 11 11 12 12 12 12 12 11 10 9 8 8 8 7 6 6 6 5 5 5 5 5 5 5 5 5 5 5 5 5 5 5 5 5 6 7 7 8 8 9 9 10 12 12 12 11 10 10 10 12 12 12 16 15 12 14 13 11 11 12 10 9
6 8 9 9 10 10 10 10 10 10 11 12 12 12 12 12 12 12 12 12 12 12 12 12 12 12 12 12 13 13 12 12 11 9 8 7 7 7 7 7 6 6 6 6 6 6 6 6 6 6 6 6 6 6 6 6 6 7 7 8 8 9 10 10 11 12 12 12 12 10 9 10 12 13 13 16 16 14 15 13 11 12 13 11 9
6 7 7 7 8 8 9 10 10 10 11 11 11 12 12 13 13 13 13 13 13 13 13 12 12 12 12 12 12 13 12 12 12 10 9 8 7 7 6 7 7 7 7 7 8 7 7 7 6 6 7 7 7 8 7 7 7 8 8 9 9 10 10 12 12 13 13 12 12 10 9 9 10 11 12 16 16 14 14 12 11 12 12 10 10
6 6 7 6 6 7 8 9 11 11 10 11 11 12 13 13 13 13 13 13 13 13 12 12 13 13 13 12 11 13 13 11 12 11 11 9 8 8 7 7 7 7 8 8 8 8 8 8 8 8 8 8 9 9 9 9 9 10 11 11 11 11 12 13 14 14 14 13 13 12 10 9 10 11 12 15 16 14 12 11 10 12 11 10 10
7 6 6 6 6 7 7 8 10 11 11 12 12 13 13 13 13 13 13 13 13 13 13 12 12 13 14 13 12 13 13 12 12 12 11 11 10 9 9 8 9 9 8 8 8 8 9 9 9 9 9 10 10 11 11 12 12 13 13 13 13 13 14 15 15 15 14 14 13 12 10 9 10 11 12 14 15 13 12 11 10 11 11 9 9
9 7 7 7 7 7 7 7 8 10 11 12 13 13 13 13 13 13 13 13 13 14 14 15 12 11 13 13 13 14 13 13 13 13 13 12 12 11 11 11 11 11 11 10 9 9 9 9 10 10 10 11 11 12 12 13 14 15 14 14 14 15 15 15 16 16 15 14 13 12 11 9 10 9 10 14 15 13 12 12 10 10 10 9 8
10 9 8 8 8 9 8 8 9 10 12 13 13 14 14 13 13 13 13 13 14 14 14 16 14 11 12 13 13 13 14 13 13 13 13 13 13 12 12 13 13 13 12 11 10 10 10 10 10 10 10 10 11 11 12 13 14 15 14 14 14 14 15 15 16 16 15 15 14 13 12 10 9 7 11 16 15 13 12 11 11 10 10 10 9
11 10 10 10 11 12 11 11 11 12 13 13 13 13 13 13 13 13 13 13 13 13 11 15 16 12 11 12 12 12 13 13 13 13 13 14 14 13 13 14 15 14 12 11 10 10 10 11 11 11 11 10 11 11 11 12 14 14 14 13 13 13 14 15 16 16 15 14 13 13 12 10 8 9 14 17 15 14 13 12 12 11 11 10 9
12 12 12 13 14 14 13 11 12 12 12 12 12 12 12 13 14 14 14 14 14 13 11 13 16 14 12 12 12 12 13 13 13 13 14 15 15 14 14 15 15 15 12 10 9 10 10 11 12 12 12 12 12 12 12 13 14 14 13 12 12 13 14 14 15 15 14 13 13 14 12 9 9 13 16 16 15 15 14 13 13 13 12 10 9
13 14 14 14 14 14 13 12 11 12 12 12 12 12 12 13 15 14 14 15 14 13 11 12 14 16 15 13 12 13 15 14 14 14 15 18 17 15 15 15 14 15 14 11 10 10 11 12 12 12 13 14 13 13 13 14 15 14 13 12 13 14 15 14 14 13 13 13 13 12 9 8 10 13 13 15 15 14 14 13 13 14 12 10 9
13 13 13 12 12 12 12 12 12 12 12 12 13 13 12 13 14 15 15 14 13 12 12 12 12 15 16 16 15 14 16 17 15 14 15 17 16 14 15 15 15 15 14 13 11 11 13 13 13 13 14 15 15 15 14 15 14 14 13 14 15 16 15 14 13 12 12 12 10 9 7 7 10 10 11 15 15 14 15 13 12 13 12 11 10
12 13 12 13 13 13 13 13 13 13 13 12 12 14 13 13 13 15 15 13 12 12 13 12 11 15 15 15 16 15 16 18 17 13 14 16 16 15 15 15 16 15 14 15 13 12 15 15 15 15 16 16 17 16 16 16 15 13 14 15 15 15 15 13 13 13 13 12 10 8 7 8 10 10 11 13 14 14 14 13 11 12 11 10 11
11 12 12 14 14 14 14 13 14 14 14 12 11 13 14 13 12 14 13 13 12 12 14 11 10 14 14 13 15 15 15 18 18 15 16 17 17 16 15 16 16 15 15 17 15 14 16 17 16 17 18 18 19 18 17 18 17 15 14 15 15 14 14 12 12 13 13 11 10 9 9 10 10 10 11 11 13 13 12 12 10 10 11 11 11
10 12 13 14 14 14 13 13 15 15 14 13 14 16 15 11 12 14 14 15 15 12 14 13 12 14 15 14 12 14 16 17 19 18 19 19 18 17 17 19 19 17 16 16 16 15 16 17 17 18 19 20 21 20 19 19 18 16 15 14 13 13 13 12 12 12 10 9 9 9 9 10 11 11 10 10 12 11 10 11 9 10 11 11 12
10 12 13 14 15 14 13 14 16 16 15 14 16 18 17 12 10 15 16 16 15 12 15 16 15 14 15 16 13 15 17 17 18 18 19 20 19 18 19 21 20 18 16 17 16 16 16 17 18 18 19 20 20 20 19 20 19 17 14 13 12 12 13 13 11 9 7 6 7 7 7 9 11 11 9 8 9 9 9 9 9 11 11 11 12
10 12 12 14 15 15 14 15 16 16 15 15 15 16 18 14 10 14 16 15 14 13 15 17 16 14 16 17 14 15 16 16 17 17 18 20 19 19 19 21 21 18 19 19 18 16 16 17 19 19 19 20 21 21 19 18 19 18 15 12 11 11 12 12 10 7 6 5 5 6 7 8 9 9 7 6 6 7 7 8 7 8 9 9 10
10 13 12 12 13 13 13 15 15 16 16 15 15 15 17 16 11 14 16 15 14 14 15 16 15 12 14 16 14 15 16 16 17 18 19 19 20 20 20 22 21 19 20 20 18 18 18 19 20 19 19 20 21 22 20 18 18 18 16 13 11 12 12 11 10 7 6 5 5 6 6 7 8 8 8 7 7 6 6 7 7 6 7 7 6
12 12 12 11 11 12 12 14 15 15 15 15 15 15 16 16 14 15 17 16 15 15 15 16 15 13 14 16 16 17 18 19 19 19 20 20 20 20 21 23 22 20 20 19 18 20 20 20 20 19 19 19 21 23 21 19 17 16 16 14 12 13 12 11 10 8 6 5 5 6 6 6 6 7 7 7 6 5 6 6 6 6 5 5 5
12 11 12 12 11 12 13 14 15 15 16 15 15 15 15 16 17 17 17 17 16 15 15 17 17 16 17 18 20 21 22 21 21 21 22 21 21 20 21 22 23 23 22 20 20 21 21 20 20 20 19 19 20 22 21 19 18 14 16 15 13 13 13 10 9 8 6 5 5 6 6 6 6 6 6 6 5 5 5 5 6 6 6 8 10
12 12 14 14 12 12 14 14 15 16 17 17 16 15 15 15 16 17 16 16 16 16 16 18 19 20 21 21 23 25 25 25 24 24 24 24 24 24 24 24 25 25 25 23 21 20 20 20 20 20 20 20 20 20 21 20 18 14 15 16 13 13 13 10 10 8 7 6 6 7 6 6 5 6 7 7 6 6 6 6 7 8 10 13 13
14 15 13 13 13 13 14 14 15 16 17 18 17 16 16 15 15 16 16 17 17 18 19 21 23 25 24 25 25 27 27 27 25 25 26 27 28 28 28 28 28 28 27 26 24 22 21 19 19 20 21 21 21 20 20 20 18 14 14 16 13 13 13 10 10 9 8 8 8 7 7 6 6 7 8 8 8 7 8 9 11 12 13 14 13
14 14 12 12 14 14 15 14 14 15 16 16 16 17 15 14 15 16 18 19 20 22 23 24 25 25 25 25 25 25 27 28 27 24 23 25 27 28 30 29 29 29 29 29 28 27 25 23 22 22 22 23 23 22 21 21 19 15 13 15 13 12 12 12 12 11 10 9 9 8 7 7 7 8 9 9 10 10 11 12 13 13 13 13 12
13 13 14 14 14 15 15 15 15 16 17 17 17 17 16 15 17 19 22 23 23 24 25 25 25 24 25 26 25 25 26 28 29 26 22 24 26 27 29 30 29 29 29 29 29 30 29 28 27 26 25 24 24 23 23 23 21 17 13 15 15 12 12 14 14 13 11 11 10 9 9 9 9 10 10 11 11 11 12 13 13 12 12 12 10
14 15 16 15 16 17 19 19 20 20 20 21 21 21 20 20 21 22 23 24 23 23 24 25 26 25 25 27 27 26 28 28 28 27 25 26 27 28 29 30 30 29 29 28 28 29 29 28 29 28 28 27 25 24 23 23 21 18 15 15 16 13 13 15 15 15 13 13 13 12 12 12 12 12 12 12 13 13 13 13 13 12 11 11 9
16 17 18 19 20 21 22 22 22 22 21 20 20 21 21 21 21 21 22 23 24 23 24 26 27 26 25 26 28 28 29 29 26 26 28 29 29 29 28 28 29 29 29 29 28 28 28 27 27 27 28 27 26 24 24 23 21 18 17 16 16 16 14 15 17 17 16 15 15 14 14 14 14 14 14 14 14 13 13 13 12 11 10 10 9
17 19 21 22 22 23 23 23 23 22 20 19 18 18 19 19 19 20 21 22 24 24 24 26 27 27 25 25 27 27 28 29 26 25 27 29 28 27 26 27 28 29 29 29 29 28 27 27 27 27 26 26 25 24 23 23 22 18 17 18 17 18 17 16 18 18 17 18 18 16 16 16 16 16 17 16 15 14 13 13 12 11 11 10 9
19 21 22 22 23 23 24 24 23 22 22 21 20 19 19 19 18 20 22 22 23 24 23 24 26 26 25 24 25 26 27 28 25 24 26 26 25 25 25 26 27 27 28 29 28 28 28 27 27 27 26 25 24 23 23 22 23 20 18 19 17 19 19 18 20 20 19 20 20 18 17 18 18 18 19 18 17 16 15 14 13 13 12 11 10
21 22 22 23 23 24 23 24 24 23 23 22 21 20 20 21 20 20 22 23 24 24 23 24 26 26 25 24 26 27 27 26 23 24 27 26 25 25 25 25 26 27 28 28 28 28 28 27 27 27 27 26 23 23 23 22 23 19 16 15 15 18 18 17 18 20 21 22 22 20 20 20 21 20 20 20 18 17 16 15 15 14 12 10 9
21 22 23 23 23 23 23 24 24 23 23 23 23 23 22 23 23 23 23 25 25 25 24 24 26 27 26 25 26 26 25 24 23 25 28 27 27 26 25 25 25 27 28 27 28 27 27 27 27 26 27 27 25 23 23 24 23 17 13 12 11 15 17 16 18 19 19 23 25 23 23 24 24 23 22 20 19 17 16 15 15 14 12 11 9
20 21 22 23 23 23 23 24 24 23 24 24 24 24 25 24 24 24 23 25 27 27 26 25 27 28 26 25 25 24 24 25 24 27 28 27 28 27 25 25 26 27 28 27 27 27 27 27 27 27 26 27 25 23 24 24 19 14 13 12 10 12 15 16 19 18 18 23 26 25 25 26 25 24 23 21 20 18 17 16 15 14 12 11 10
19 20 21 21 22 22 23 23 22 23 24 24 23 23 24 23 23 24 23 24 27 28 26 26 27 27 25 25 24 24 25 26 25 27 28 27 29 28 25 26 27 28 28 28 28 27 27 27 26 27 26 25 24 22 24 21 15 13 13 10 8 10 13 17 20 20 19 22 25 27 28 28 26 24 23 22 21 18 17 16 15 14 12 10 9
18 18 18 19 20 21 22 22 22 22 23 23 23 22 22 21 22 23 24 24 26 26 24 24 26 26 25 25 24 25 27 28 27 27 29 28 29 28 25 26 28 28 29 29 30 29 29 28 26 25 25 24 24 24 24 19 15 17 13 6 4 4 6 11 15 17 19 21 24 27 28 28 27 24 23 23 22 20 17 16 15 15 12 10 10
17 17 17 18 19 20 20 20 21 22 22 23 23 21 20 20 20 21 22 23 24 26 25 25 26 25 25 25 24 26 27 28 28 27 28 29 30 27 23 25 26 27 28 29 30 29 29 29 28 26 24 22 22 23 24 20 18 17 9 3 3 2 3 3 5 9 15 21 24 22 21 25 27 24 23 24 23 21 19 17 16 15 12 11 10
16 17 18 19 19 19 20 20 20 20 22 23 24 23 22 22 22 23 24 25 26 26 27 27 26 25 26 25 24 25 27 28 28 28 29 29 31 27 23 25 26 26 29 30 29 29 30 29 28 27 25 22 21 22 23 22 21 17 8 5 4 2 2 3 3 5 10 17 17 17 20 23 26 26 25 26 24 22 20 18 18 16 13 11 10
16 18 18 18 19 20 20 20 20 21 22 23 24 23 23 24 24 25 26 25 24 24 25 25 26 26 26 25 24 25 28 29 28 28 29 29 30 25 22 24 26 27 30 31 32 31 31 30 28 27 26 23 22 21 21 22 23 18 12 11 10 8 8 5 2 2 5 11 10 14 23 22 21 26 27 27 27 24 22 20 19 17 14 12 10
17 16 17 18 19 19 19 20 21 21 22 22 22 22 22 22 22 23 23 22 21 23 24 24 24 25 25 24 24 25 28 27 27 28 29 30 29 24 22 23 25 28 31 33 33 32 31 31 28 26 25 24 22 20 20 22 21 18 18 18 16 15 15 12 6 3 1 5 6 11 21 19 17 19 22 25 27 26 24 22 21 18 15 12 9
15 15 17 18 18 18 19 20 21 21 21 20 21 21 21 21 22 23 24 23 23 24 24 23 23 23 24 25 25 26 26 26 27 28 29 31 28 24 23 24 26 29 32 32 33 33 32 32 29 26 25 24 23 20 20 20 18 19 22 21 19 17 17 18 17 11 2 2 4 6 12 16 15 14 17 24 27 28 26 24 22 20 16 13 10
15 15 17 16 15 17 19 20 20 20 19 19 20 21 21 22 23 24 24 23 22 23 23 23 24 24 25 26 27 27 26 26 27 28 31 31 27 24 24 27 29 30 31 32 33 33 33 31 28 26 25 25 23 21 21 21 20 20 21 20 19 18 16 18 20 17 9 5 3 2 4 9 12 13 19 25 26 28 27 25 25 21 17 14 11
15 15 15 14 14 16 18 18 18 18 18 18 19 20 20 21 22 23 24 23 22 22 24 25 25 26 27 27 28 28 27 27 27 29 32 29 23 23 27 30 32 32 33 34 34 34 32 30 27 25 25 26 25 22 21 21 21 21 21 20 18 16 13 11 12 14 11 8 5 4 5 7 7 11 20 24 25 28 28 27 25 20 17 13 10
14 14 14 13 14 15 16 16 16 17 18 17 19 20 20 20 21 21 23 24 23 23 24 25 26 26 27 27 28 28 28 27 27 31 31 24 20 25 30 33 34 35 36 36 34 33 32 30 28 26 26 27 26 25 24 23 23 22 22 21 18 17 14 10 12 13 9 5 5 6 7 10 10 12 18 22 25 30 28 26 23 19 15 12 9
Wind_Direction
12 15 13 13 16 9 16 27 36 43 47 50 52 52 55 54 52 52 51 47 44 40 36 33 32 35 35 36 33 28 33 34 36 34 37 30 4 358 4 360 3 15 25 25 11 33 360 327 299 293 256 198 174 171 161 156 147 128 103 73 68 78 94 109 106 104 103 97 117 112 85 79 104 163 163 164 163 177 178 176 181 186 187 164 158
346 16 11 4 12 13 18 26 32 39 44 50 55 54 55 52 50 50 46 47 44 39 35 35 31 29 29 29 26 22 24 24 30 26 39 56 23 354 360 351 4 360 4 19 14 38 360 360 37 39 217 174 157 167 167 159 152 141 121 90 82 77 94 117 114 124 125 96 132 125 70 53 31 180 181 184 180 191 187 180 186 190 179 162 164
1 28 3 354 5 18 23 28 32 36 40 46 50 49 52 48 44 44 44 46 43 39 37 37 33 30 30 27 24 23 23 21 26 21 31 65 61 38 42 30 24 2 350 354 341 25 15 19 41 55 120 151 157 170 171 163 153 144 127 111 104 91 97 123 133 156 159 160 196 258 259 283 309 200 190 197 191 191 195 188 188 190 173 167 169
27 25 358 359 5 23 32 34 35 34 40 43 45 44 46 45 41 42 44 44 39 38 37 37 34 32 32 27 27 23 21 22 28 31 30 52 58 49 53 45 38 32 13 3 355 11 21 26 38 45 90 125 160 168 172 168 156 144 118 117 116 115 119 140 169 196 211 201 210 251 254 264 274 249 206 204 205 203 204 195 184 180 171 169 170
30 17 6 10 16 31 40 37 37 37 42 41 41 43 42 42 41 44 45 44 38 35 34 36 35 35 34 31 34 26 20 17 23 36 40 36 36 46 39 27 33 46 58 28 20 24 16 17 42 37 62 96 155 163 178 178 173 176 35 67 80 90 140 241 238 236 249 253 254 257 258 266 262 254 236 216 215 214 212 205 188 175 170 168 170
31 27 21 19 30 37 40 40 39 37 42 41 40 40 42 43 41 45 47 47 42 36 34 33 33 34 34 34 39 32 23 18 16 23 37 32 19 29 24 19 38 42 49 38 25 41 36 21 35 35 41 61 307 181 207 216 212 233 296 311 340 17 307 253 261 256 261 268 264 260 259 264 261 255 247 234 225 219 216 211 201 179 171 172 173
36 31 22 23 38 37 37 40 38 36 39 42 43 40 44 48 45 47 48 48 44 40 36 33 33 33 32 32 38 36 25 22 20 17 20 20 17 29 32 29 34 31 38 42 29 38 46 29 26 30 26 20 336 282 239 244 244 247 272 294 301 299 297 285 280 276 278 283 276 263 259 262 263 260 251 242 231 221 217 212 201 182 176 180 181
33 24 19 23 33 32 32 36 37 35 37 38 43 48 48 49 47 47 47 46 45 41 37 34 31 29 30 28 33 39 29 24 25 23 21 19 19 28 35 25 19 27 33 30 24 29 32 22 18 18 8 358 333 297 262 257 259 257 270 283 287 290 294 297 297 296 294 300 296 269 263 275 273 266 254 240 230 218 214 209 198 188 187 188 194
29 24 22 25 31 30 32 33 35 36 37 37 44 53 51 50 49 46 45 45 44 40 33 29 28 26 25 23 26 36 34 25 23 24 27 28 21 17 24 19 10 17 25 20 14 10 8 11 5 1 349 333 316 298 283 273 270 268 274 281 286 291 293 298 301 301 304 312 310 290 284 291 282 269 252 236 226 214 209 207 201 196 194 189 197
37 32 28 30 33 31 34 34 34 37 39 39 44 49 49 49 48 47 46 44 40 34 29 24 23 22 21 22 22 30 34 27 20 18 22 26 25 18 12 13 8 5 13 10 357 353 357 359 343 337 331 319 313 307 300 291 286 281 281 284 288 292 295 299 301 304 310 316 316 310 304 291 280 273 249 233 225 214 206 207 208 203 192 183 184
41 35 36 36 37 34 36 36 34 36 39 44 43 42 44 42 41 41 42 39 35 29 28 26 24 24 22 22 20 24 29 29 25 17 17 19 23 18 8 9 5 360 3 358 349 347 344 338 328 321 318 314 312 312 312 311 309 304 298 296 295 299 302 303 304 307 311 315 319 320 312 287 274 270 250 234 228 216 206 211 216 204 190 179 177
48 42 45 46 46 43 43 42 39 39 39 43 42 40 40 38 37 36 37 37 36 36 36 35 31 28 25 23 21 21 22 25 26 22 19 14 13 7 2 1 355 359 355 344 338 334 326 321 319 316 315 315 312 311 316 319 318 314 309 305 303 304 304 304 303 306 311 314 317 323 317 293 274 268 251 235 229 212 204 215 219 201 191 186 182
55 50 49 52 53 48 47 47 46 47 46 46 44 40 38 39 40 39 40 40 39 39 39 40 35 31 28 27 25 22 20 20 21 22 22 15 10 3 357 353 348 349 339 330 325 319 313 309 309 308 309 309 310 310 314 315 312 309 304 299 299 300 300 301 301 303 307 310 313 317 316 302 278 268 251 234 223 207 206 217 215 196 192 192 190
52 49 44 47 53 48 43 45 48 51 52 50 45 39 38 40 41 41 41 40 39 37 36 36 30 26 22 22 23 23 21 21 21 19 19 16 12 6 357 349 342 337 328 321 316 312 304 299 297 296 296 296 298 301 303 304 302 297 292 291 290 293 296 296 296 299 301 305 308 306 311 310 286 270 249 230 216 209 214 219 209 195 198 200 199
55 42 40 45 47 41 37 42 47 49 49 49 47 42 40 38 38 38 38 38 37 32 30 28 24 19 13 12 14 19 21 20 21 17 15 15 12 8 2 354 344 336 330 322 315 308 301 295 291 289 289 288 290 292 294 295 294 291 289 289 290 291 291 291 291 292 296 298 299 297 301 306 294 272 243 224 214 215 221 217 204 195 198 200 199
59 43 43 49 42 33 36 45 47 47 49 48 47 47 44 40 37 35 34 36 35 29 24 22 22 18 13 14 12 15 19 19 21 18 15 12 10 5 0 356 350 344 339 334 326 316 307 300 295 292 290 290 291 291 293 294 293 291 289 289 292 292 288 286 287 288 291 290 291 291 291 296 295 274 240 222 215 215 217 208 200 194 194 196 196
57 56 53 52 46 42 47 49 47 48 50 49 45 45 44 41 37 35 32 31 29 27 24 21 22 16 13 18 16 18 19 19 21 20 17 13 9 5 2 359 353 349 345 343 339 331 323 315 308 302 297 295 295 295 296 294 292 288 288 292 294 291 287 284 283 282 283 282 282 284 286 287 289 279 237 220 217 218 216 207 199 195 195 197 197
59 58 54 50 47 50 53 49 47 48 47 44 41 38 36 33 30 29 27 25 21 20 20 18 21 20 16 17 16 19 21 18 18 18 16 12 9 8 6 3 358 351 344 340 340 337 332 330 326 319 311 305 301 299 298 294 290 287 288 292 288 284 284 282 280 279 279 279 278 279 282 281 283 276 233 219 220 223 220 211 205 198 194 198 200
62 57 56 55 54 55 56 54 50 48 45 40 38 34 31 27 23 20 17 15 13 13 8 8 18 23 19 18 14 15 20 19 16 15 13 12 13 13 9 6 2 355 344 335 335 338 336 334 332 328 321 313 307 301 296 291 287 288 290 286 281 282 283 279 276 276 280 280 281 283 278 274 270 254 235 218 214 222 218 210 210 203 196 200 201
63 61 64 61 58 57 54 53 47 44 40 35 32 28 27 25 23 17 10 8 4 6 356 356 12 16 13 15 13 14 19 15 12 13 10 7 7 8 6 2 359 355 347 333 328 334 336 335 331 329 324 316 311 305 297 291 290 295 294 286 285 290 292 286 278 276 278 278 286 290 281 268 250 242 236 216 212 222 212 203 211 212 206 207 203
61 62 66 63 57 55 51 48 46 42 35 30 26 22 22 23 24 19 12 8 3 6 360 355 7 14 17 18 16 13 10 3 358 4 1 356 353 351 355 353 351 351 348 339 327 328 332 333 332 328 323 318 310 305 300 296 295 296 296 291 290 293 295 292 284 279 277 279 287 288 279 264 245 237 230 213 216 223 209 205 216 219 216 215 206
60 61 62 59 52 48 46 45 45 41 33 30 29 24 20 19 25 23 18 15 11 15 10 2 7 15 22 23 20 12 8 5 359 359 355 353 353 348 348 348 347 345 343 340 330 328 334 333 331 327 322 318 308 302 298 297 298 296 296 294 292 294 297 291 281 281 282 284 287 278 261 250 239 231 220 209 213 215 209 212 219 218 217 215 209
58 59 57 51 45 39 37 38 34 26 22 24 30 31 24 20 26 25 21 23 22 18 8 4 10 15 20 23 21 15 11 11 9 6 359 358 360 355 350 348 349 348 346 345 335 328 333 331 329 326 322 318 311 303 297 295 297 298 298 296 294 293 295 289 277 282 288 284 280 272 248 232 228 224 219 210 209 210 210 215 216 213 214 218 220
53 51 49 45 40 34 32 32 24 18 19 21 26 26 20 20 26 25 20 17 15 10 8 13 16 13 16 20 21 18 11 11 15 14 8 3 1 0 359 357 356 354 351 348 343 336 335 333 331 331 329 325 318 309 298 292 292 293 293 295 294 290 290 289 284 286 287 280 271 265 241 225 224 221 219 216 215 216 220 222 216 214 221 227 229
55 51 46 42 37 33 31 28 24 25 29 27 24 17 13 21 29 26 17 13 15 16 21 25 18 12 16 18 21 21 14 12 14 11 7 3 1 3 3 360 354 351 350 346 346 349 345 341 338 337 338 335 328 317 301 292 289 286 287 290 289 285 284 289 292 287 280 269 256 250 234 225 224 221 218 222 227 227 229 226 219 222 225 228 233
60 53 48 43 37 34 31 27 27 30 29 24 23 21 21 28 32 25 16 14 22 27 25 21 11 9 17 19 18 18 17 13 9 7 5 1 360 360 358 358 356 355 359 352 350 354 349 343 340 339 342 344 343 335 313 296 287 281 283 285 282 279 279 284 288 281 269 250 233 231 226 223 224 224 222 223 231 234 235 233 229 231 228 230 238
57 51 48 45 36 32 30 28 27 27 25 23 25 26 26 30 32 25 18 15 22 26 23 18 10 11 22 22 20 18 15 10 4 2 360 357 357 355 352 356 3 8 6 359 356 357 349 341 340 341 346 349 352 350 335 314 294 279 276 279 277 272 270 275 278 270 258 231 210 215 218 221 220 220 225 225 227 231 238 239 236 235 231 234 239
54 50 46 42 36 30 26 26 25 23 22 22 24 23 23 29 33 26 22 22 26 31 28 26 25 26 25 20 18 15 9 5 0 357 353 351 351 350 347 349 358 2 359 0 1 357 348 340 341 344 348 347 348 349 345 336 312 282 269 271 274 270 266 264 264 258 244 220 202 208 216 219 213 213 219 222 224 224 228 230 227 225 221 225 229
54 52 45 38 37 30 25 26 25 24 22 21 21 21 21 26 29 24 24 26 29 31 27 29 34 31 20 13 12 9 5 3 360 356 352 350 349 347 346 347 350 350 348 352 354 351 345 340 339 341 345 343 343 347 344 343 330 293 265 264 273 270 265 259 253 244 229 222 214 211 215 215 206 207 209 210 216 213 209 209 206 205 196 186 170
57 55 46 39 36 34 33 30 28 28 26 25 24 24 24 25 27 25 23 24 27 26 21 23 24 21 16 15 15 14 13 10 6 4 2 1 1 360 357 354 354 353 350 347 346 345 343 340 336 336 342 342 343 346 344 345 340 308 266 258 271 272 266 255 242 234 219 223 227 213 212 215 205 202 201 197 197 195 192 188 183 179 164 149 140
61 55 46 43 42 40 38 35 34 36 34 34 34 31 29 28 28 27 26 26 27 25 23 25 25 24 23 24 25 25 24 22 21 20 19 18 17 17 14 10 7 4 1 355 350 347 343 339 335 334 338 341 342 344 346 346 343 320 271 254 266 275 269 248 233 229 212 218 230 217 209 208 203 196 190 181 177 176 170 163 155 149 144 138 134
58 52 47 46 46 44 43 40 40 42 42 41 38 35 33 33 32 30 31 32 32 33 35 36 36 34 33 31 30 28 26 24 24 23 23 23 23 23 21 18 16 14 12 8 4 359 352 345 337 335 335 336 337 339 344 345 345 329 278 254 261 273 264 243 232 225 209 212 219 210 202 197 196 189 178 168 160 154 145 139 137 137 139 135 134
54 51 51 50 49 47 44 41 41 43 44 43 38 37 38 38 39 39 42 43 43 45 44 41 37 34 32 29 27 26 25 22 19 16 17 20 22 22 20 17 16 15 15 14 13 9 4 359 351 344 340 339 338 338 341 341 343 334 287 255 256 265 255 246 241 226 208 207 210 207 198 187 183 179 174 164 153 146 139 135 136 137 138 136 137
57 55 55 55 52 48 46 45 46 47 48 47 44 45 47 49 52 53 52 49 47 46 43 39 33 30 29 28 28 28 26 21 18 17 15 15 16 18 18 14 13 13 13 14 13 12 9 7 3 357 351 347 342 340 341 340 339 335 303 262 256 259 250 251 247 228 210 203 203 204 198 186 176 173 173 164 154 149 144 142 141 140 140 138 140
63 61 59 60 60 57 57 56 56 57 57 56 55 56 56 57 57 54 50 45 43 44 40 35 30 28 28 29 29 28 24 18 17 20 21 20 17 18 17 13 13 13 13 13 12 10 9 7 6 3 358 354 348 342 341 341 338 336 319 277 256 248 247 256 246 223 210 204 200 199 192 184 176 172 170 162 155 153 148 146 144 142 142 139 140
65 66 67 68 66 62 59 57 56 56 56 56 56 57 55 54 52 49 47 44 43 43 38 32 29 25 24 26 27 26 24 18 16 20 22 24 22 18 15 12 12 13 13 14 11 9 7 4 5 5 359 355 351 346 342 341 339 336 326 294 257 237 244 255 240 221 211 204 198 195 189 181 177 172 167 160 155 153 147 143 142 140 139 137 136
69 72 72 68 63 59 56 54 52 51 50 50 50 50 48 45 46 48 47 43 39 37 33 30 29 28 24 23 21 23 26 21 18 20 21 22 20 16 14 11 11 12 12 12 12 10 7 3 2 3 0 355 352 349 345 342 339 336 327 308 268 242 247 247 232 221 215 208 199 194 188 178 175 172 167 160 152 147 143 138 136 134 134 135 135
76 73 68 64 61 58 55 51 49 48 47 48 48 48 46 44 47 49 45 40 35 32 30 27 27 30 29 24 19 21 24 20 18 20 19 19 17 16 16 13 13 14 13 12 11 10 8 5 359 358 358 355 351 349 347 342 337 334 328 312 274 249 251 245 230 221 216 210 200 193 189 181 177 175 169 162 154 148 146 142 139 137 139 142 143
75 70 66 64 62 58 55 50 46 44 42 43 43 43 44 43 42 43 41 39 36 34 33 28 27 30 29 25 22 21 21 20 20 19 18 20 20 20 22 20 19 18 14 12 12 9 8 7 1 356 354 354 353 349 348 343 337 336 336 317 276 256 257 252 240 227 213 207 200 192 191 188 182 179 172 163 158 156 154 152 145 140 138 137 135
71 68 66 62 59 57 53 50 46 42 39 37 36 35 35 35 34 36 37 37 37 36 34 29 28 32 28 23 22 22 22 21 19 15 18 23 24 23 25 26 25 21 18 16 14 12 9 7 3 359 355 354 354 354 352 344 338 339 342 328 289 265 262 256 250 237 217 207 202 195 191 188 186 182 173 166 164 162 158 153 146 139 132 128 124
69 69 67 62 59 56 51 48 43 40 38 35 34 34 32 31 32 33 34 35 35 33 32 28 28 31 28 23 22 22 21 17 13 14 19 23 21 21 25 28 27 22 21 20 16 14 11 7 3 0 358 353 350 353 353 346 342 343 339 328 301 274 259 251 248 242 228 213 206 202 193 187 189 184 173 170 169 164 158 153 146 140 133 130 126
70 69 67 66 62 58 53 47 40 37 34 32 33 33 32 33 35 34 34 35 35 32 30 28 27 28 26 24 22 20 18 17 17 19 23 22 18 20 25 27 24 20 19 18 16 13 11 8 3 358 357 352 346 347 353 352 344 334 327 318 301 280 256 247 245 240 233 219 210 208 198 189 189 183 173 173 171 166 160 154 149 142 137 134 130
76 73 69 67 61 56 52 45 37 33 32 30 30 29 30 34 38 37 35 36 35 31 30 29 27 26 24 23 21 18 18 22 24 24 24 22 17 19 26 25 21 19 17 15 12 10 8 6 3 357 352 350 346 345 352 355 340 326 320 305 313 309 260 244 244 241 232 219 212 210 200 191 191 183 176 176 172 168 162 156 153 145 138 135 130
82 76 70 65 59 55 49 40 35 33 33 31 29 30 31 34 38 38 36 36 33 29 29 29 26 23 22 22 19 18 20 24 27 24 21 19 16 19 27 25 23 21 18 15 10 6 4 2 0 357 352 347 341 341 346 351 343 333 323 294 300 307 281 258 261 256 232 218 215 211 200 195 192 184 180 180 176 171 164 158 154 147 142 139 132
81 77 72 66 62 55 46 39 36 37 36 32 29 31 33 34 34 33 31 32 30 26 23 22 22 22 23 22 19 19 21 24 25 23 19 16 14 18 27 26 24 22 18 16 11 5 2 360 357 355 354 348 337 334 340 347 345 338 327 307 299 263 293 321 313 280 231 219 219 210 207 206 194 185 183 181 179 175 166 161 156 150 148 145 136
82 82 75 67 60 52 46 43 40 39 37 31 28 30 33 33 32 31 28 25 24 22 19 18 21 24 25 22 20 21 23 24 24 21 19 16 15 21 28 26 23 21 16 12 8 5 1 358 356 352 351 349 340 332 334 341 343 340 331 315 301 283 286 290 272 293 237 227 231 205 204 208 197 190 187 180 179 177 170 164 158 153 152 149 141
88 82 72 64 57 52 49 45 40 38 36 31 28 31 33 34 34 34 31 27 23 22 23 25 25 25 25 23 22 23 23 23 21 19 18 17 18 25 30 25 20 16 11 8 5 2 358 354 354 352 349 348 343 333 328 335 338 334 331 323 311 297 287 279 256 263 256 235 244 205 199 199 195 194 189 180 178 177 173 167 161 157 158 155 147
86 75 69 66 61 55 50 44 40 39 35 31 31 34 34 33 35 36 35 32 28 26 27 28 27 26 26 24 24 23 24 23 19 18 18 17 20 30 32 24 17 13 9 7 2 359 356 353 352 352 350 346 343 335 326 329 331 326 326 324 319 310 295 282 265 250 238 219 233 210 194 182 175 180 182 180 178 176 175 170 165 163 160 155 146
82 76 74 70 61 52 46 42 41 40 36 32 33 36 35 34 35 36 35 33 30 30 29 27 26 25 25 24 22 22 23 21 19 18 17 20 28 33 29 22 17 13 9 6 2 358 355 352 351 350 347 345 345 340 328 325 324 322 323 319 315 313 303 289 269 248 229 218 213 188 171 160 154 156 161 165 168 171 170 164 162 161 155 149 143
83 79 72 62 55 47 42 42 41 40 39 36 35 36 35 35 36 35 34 31 29 30 28 26 25 24 24 23 21 22 22 20 20 18 18 27 37 31 23 20 16 12 9 6 2 359 355 352 352 349 346 345 344 341 332 326 323 319 318 315 310 308 304 293 271 247 224 219 214 169 163 162 143 145 153 153 155 161 159 156 156 154 151 147 137
79 69 60 52 53 50 46 49 46 41 41 38 36 36 35 35 35 35 34 31 29 29 27 25 23 23 22 21 20 21 22 22 20 18 23 35 37 24 19 17 14 11 8 5 2 359 356 354 354 351 348 345 342 338 333 330 326 320 316 313 307 302 296 283 272 256 224 208 202 170 168 168 149 144 155 152 150 153 153 153 154 152 149 142 129
Height
820 820 821 819 819 818 818 816 815 813 812 811 810 810 810 810 809 809 809 809 808 808 808 808 807 807 807 806 806 805 805 804 804 803 802 802 801 801 800 800 799 799 798 798 798 797 797 796 796 795 795 794 794 793 793 793 793 792 792 791 791 791 790 790 790 790 789 788 788 788 788 788 788 788 788 788 787 786 786 786 786 786 785 785 785
821 821 821 820 820 819 818 816 815 814 813 812 811 811 810 810 810 810 809 809 809 809 808 808 808 808 807 807 806 806 805 805 804 803 802 802 801 801 800 800 799 799 798 798 797 797 797 796 796 795 795 794 793 793 793 793 793 793 793 792 792 791 791 791 790 790 790 789 789 789 789 788 788 788 788 788 787 787 786 786 785 785 785 786 786
822 822 822 821 820 819 818 817 816 814 814 813 812 811 811 811 810 810 810 810 809 809 809 809 809 808 807 807 807 806 806 805 804 803 803 802 801 801 800 800 799 799 798 798 797 797 797 796 796 795 795 794 794 793 793 793 793 793 793 793 792 792 791 791 791 790 790 790 790 790 789 789 789 788 788 788 787 787 786 786 785 785 785 786 786
823 823 822 821 820 819 818 817 816 815 814 813 813 813 812 811 811 811 810 810 810 810 810 809 809 808 808 807 807 806 805 805 804 803 802 802 801 801 800 800 799 798 798 797 797 797 797 796 796 795 795 794 794 793 793 793 793 793 793 793 793 792 792 791 791 791 791 790 790 790 789 789 789 788 788 788 787 787 786 786 785 785 785 785 786
823 823 822 821 820 819 818 817 816 815 815 814 814 814 813 812 811 811 811 810 810 810 810 810 809 808 808 807 807 806 805 805 804 803 802 802 801 800 800 799 799 798 798 797 797 797 797 796 796 795 795 794 794 794 794 793 793 793 793 793 793 792 792 792 791 791 791 791 790 790 789 788 788 788 788 787 787 787 786 786 786 785 785 785 785
823 823 822 821 820 819 818 817 817 816 815 815 815 814 814 813 812 812 811 811 811 811 810 810 809 808 808 807 807 806 806 805 804 803 802 802 801 800 800 799 799 798 798 797 797 797 797 796 796 795 794 794 794 794 794 794 793 793 793 793 792 792 792 792 791 791 791 791 790 789 789 788 788 787 787 787 786 786 786 786 785 785 785 785 785
823 823 822 821 820 819 819 818 817 817 816 816 815 815 814 814 813 813 812 811 811 811 811 810 809 809 808 807 807 806 806 805 804 803 802 802 801 800 800 799 799 798 798 798 798 797 797 797 796 796 795 795 794 794 794 793 793 793 793 792 792 792 791 791 791 791 790 790 789 789 788 787 787 786 786 786 786 786 785 785 785 785 784 785 785
823 822 822 821 821 820 820 819 818 818 817 817 816 815 815 814 814 813 812 812 812 811 811 810 809 809 808 808 807 806 806 805 804 803 802 801 801 800 800 800 799 799 798 798 798 798 797 797 796 796 795 795 795 794 794 793 793 792 792 792 792 791 791 790 790 790 789 789 788 788 787 786 786 785 785 785 785 785 785 785 784 784 784 784 784
823 823 822 822 821 821 820 819 819 818 818 817 816 816 815 815 814 813 813 812 812 811 811 810 810 809 809 808 807 806 806 805 804 803 802 801 801 800 800 800 799 799 799 799 798 798 798 797 797 796 796 795 795 794 793 793 792 792 792 791 791 791 790 789 789 788 788 788 787 786 786 784 784 783 783 783 784 784 784 784 784 784 783 783 784
824 824 824 823 822 821 821 820 819 819 819 818 817 816 815 815 814 813 813 812 811 811 810 810 810 809 809 808 807 806 806 805 804 803 802 802 801 801 800 800 800 799 799 799 798 798 798 797 797 796 796 795 794 794 793 792 792 792 791 791 790 790 789 788 788 787 787 787 786 785 784 783 782 782 781 782 783 783 783 783 783 783 783 783 783
825 825 825 824 823 822 821 821 820 819 818 817 817 816 815 815 814 813 813 812 811 811 810 810 810 810 809 808 807 806 806 805 804 803 803 802 801 801 801 800 800 799 799 799 798 798 798 797 797 796 795 795 794 793 793 792 792 791 791 790 790 789 788 787 787 786 786 785 784 783 782 781 781 780 780 781 781 782 782 782 782 782 782 782 782
827 826 825 824 823 823 822 821 820 819 818 817 817 816 816 815 814 814 813 813 812 811 810 810 810 810 809 809 808 807 806 805 804 803 803 802 801 801 800 800 800 799 799 798 798 798 797 797 796 796 795 794 794 793 792 791 791 791 790 789 789 788 787 786 785 784 784 783 783 782 780 779 779 779 779 780 780 781 781 781 781 781 781 781 781
828 827 826 825 824 824 822 821 820 820 819 818 817 817 816 815 815 814 814 813 812 812 811 811 810 810 810 809 808 807 806 805 804 803 803 802 801 801 800 800 799 799 798 798 798 797 797 796 795 795 794 793 793 792 791 791 790 790 789 788 788 787 786 785 784 783 782 781 780 780 779 778 777 778 778 778 779 780 781 781 780 780 780 780 781
828 827 826 826 825 824 823 822 821 820 819 819 818 817 817 816 815 815 814 814 813 813 812 812 811 811 810 810 809 808 807 806 805 804 803 802 802 801 800 800 799 799 798 798 797 797 796 795 795 794 793 792 792 791 791 790 789 789 788 787 786 786 785 784 783 782 781 780 779 778 777 777 776 776 777 778 779 779 780 780 780 780 780 780 780
829 828 827 826 825 825 824 823 821 821 820 819 819 818 817 817 816 816 815 815 814 813 813 813 812 812 811 810 809 808 807 806 805 804 804 803 802 801 801 800 800 799 798 798 797 796 795 795 794 793 792 791 791 790 790 789 788 787 786 785 785 784 783 782 781 780 779 778 777 776 776 775 775 776 777 778 779 779 779 779 779 779 779 779 779
829 828 827 826 826 825 824 823 822 822 821 820 819 818 818 817 817 817 816 815 814 814 814 813 812 812 811 810 810 809 808 807 806 805 804 803 802 802 801 800 800 799 798 797 797 796 795 794 793 792 791 790 790 789 788 788 786 785 784 784 784 783 782 781 780 779 778 777 775 774 774 774 775 776 777 778 778 778 779 778 778 778 779 779 779
829 828 827 827 826 825 824 824 823 822 822 821 820 819 818 818 817 817 816 815 815 814 814 813 812 811 811 810 810 809 808 807 806 805 804 803 802 802 801 800 799 798 797 797 796 795 794 793 792 791 790 790 789 788 787 786 785 783 782 782 782 781 780 779 778 777 776 775 774 773 773 774 774 776 777 777 778 778 778 778 778 778 778 778 778
829 828 828 827 826 825 825 824 824 823 822 821 820 819 819 818 817 816 816 815 815 814 813 813 812 811 811 810 809 809 808 807 806 805 804 803 802 801 800 799 798 798 797 796 795 794 793 792 791 790 789 788 788 787 786 784 782 781 781 781 780 778 778 777 776 775 775 774 773 773 772 773 774 775 775 774 775 777 778 778 778 777 777 778 778
829 829 828 828 827 826 825 825 825 824 823 822 821 820 819 818 817 816 815 815 815 814 814 813 812 811 811 810 810 809 808 807 806 805 804 803 802 801 800 799 798 797 796 795 795 793 792 791 790 789 788 787 786 786 784 782 780 780 780 779 778 777 776 775 774 774 773 773 772 772 772 773 774 773 771 771 773 774 775 777 778 777 777 777 777
830 830 829 829 827 827 826 826 825 824 823 822 821 820 819 818 817 816 815 815 814 814 814 813 812 811 811 810 810 809 808 807 806 805 804 803 802 801 800 798 798 796 796 795 794 793 791 790 789 788 787 786 785 784 782 780 779 779 778 777 776 776 775 774 773 772 772 772 771 771 771 771 772 770 769 771 772 771 772 774 775 776 776 776 776
831 830 830 829 828 828 827 827 825 824 823 822 822 820 819 818 817 816 816 815 814 814 813 813 812 812 811 810 810 809 808 807 806 805 804 803 802 800 799 798 798 796 795 794 793 792 790 789 788 787 786 785 784 783 781 779 778 778 777 776 775 774 773 773 772 771 771 771 771 770 770 770 769 769 769 771 770 770 771 772 773 774 774 774 775
832 831 831 830 829 829 827 827 825 825 824 823 822 821 820 818 817 817 816 815 815 814 813 813 813 812 811 810 809 809 808 806 805 804 804 803 802 800 799 798 797 796 795 794 792 791 790 788 787 786 785 784 783 782 780 777 777 776 775 774 773 772 772 771 770 770 770 770 770 769 769 768 767 767 769 770 770 770 771 772 772 773 773 773 773
833 832 831 831 830 829 828 827 826 825 824 823 822 821 820 819 818 817 816 816 815 814 814 813 813 812 811 810 810 809 808 807 805 804 804 803 801 800 799 798 797 796 794 793 792 790 789 788 787 785 784 783 782 780 779 776 775 774 773 772 771 771 770 769 769 768 768 768 768 768 768 768 766 766 767 768 769 770 770 770 771 772 772 772 772
834 833 832 831 830 829 828 827 826 826 825 823 822 821 820 820 819 818 817 817 816 815 814 814 813 813 811 811 810 809 808 807 806 805 804 803 801 800 799 798 796 795 794 792 791 790 788 787 786 785 783 782 780 779 777 775 774 773 772 771 770 769 768 767 767 767 766 767 767 767 767 767 766 765 766 767 767 768 769 769 770 771 770 770 771
834 834 833 832 831 830 829 828 827 826 825 824 822 822 821 820 820 819 818 817 816 815 815 814 813 813 812 811 810 809 808 807 806 805 804 802 801 800 798 797 796 794 793 791 790 789 787 786 785 783 782 781 779 777 775 773 772 772 770 769 768 767 766 766 765 765 765 765 765 766 766 766 765 765 765 766 766 766 767 768 769 769 769 769 769
836 835 834 833 832 831 830 829 828 826 825 824 823 823 822 821 820 819 819 818 817 816 815 814 814 813 813 812 811 810 808 807 806 805 803 802 801 799 798 797 795 793 792 791 789 787 786 785 784 782 781 779 777 775 773 772 771 770 769 768 767 766 765 764 763 763 763 763 764 765 765 765 764 764 765 766 765 766 766 767 767 767 767 767 768
836 835 834 834 833 832 831 830 828 827 826 825 824 823 822 821 821 820 819 818 817 816 816 815 814 814 813 812 811 810 808 807 806 804 803 802 801 799 798 797 795 793 791 790 788 786 785 784 782 781 779 778 776 774 772 770 769 768 767 766 765 764 763 763 762 762 762 763 763 763 763 763 763 763 763 764 765 765 765 765 766 766 766 766 767
837 836 835 835 834 833 832 831 829 828 827 826 825 824 823 822 821 820 819 818 817 817 816 815 815 814 813 812 811 810 808 807 806 804 803 802 801 799 798 796 795 793 791 790 788 786 784 782 781 779 778 776 775 773 771 769 768 767 766 765 764 763 762 762 761 761 761 761 762 762 762 762 762 762 762 763 763 764 765 765 765 765 766 766 766
838 837 837 836 835 834 833 831 830 829 828 827 826 824 823 823 822 821 820 819 818 817 817 816 815 814 813 812 811 810 808 807 806 804 803 802 801 799 797 795 794 793 791 789 787 785 783 781 780 778 777 776 774 772 770 768 767 765 765 764 763 762 761 760 760 760 760 761 761 761 761 761 761 761 762 762 762 763 764 764 764 765 765 766 766
839 838 837 836 835 835 833 832 831 830 829 827 826 825 824 823 822 821 820 819 819 818 817 816 815 814 813 812 811 810 808 807 805 804 803 801 800 798 797 795 793 791 790 788 786 785 783 781 779 777 776 775 773 771 769 767 765 764 763 763 762 761 760 759 759 758 759 760 760 760 760 760 760 760 761 761 762 762 763 763 764 764 764 765 766
840 839 838 837 836 835 834 833 832 831 829 828 827 826 825 824 823 822 821 820 819 818 817 816 815 814 813 812 811 810 809 807 806 804 803 802 800 798 797 795 793 791 789 787 785 784 782 780 778 777 775 774 773 771 769 767 765 763 762 762 761 760 760 759 758 757 758 759 759 759 759 759 759 760 760 761 761 761 762 762 763 764 764 765 765
840 839 839 838 837 836 835 834 833 831 830 829 827 826 825 825 824 823 822 821 820 819 818 817 816 815 814 813 812 811 809 808 807 805 804 802 800 799 797 795 793 791 789 787 785 783 781 779 777 775 774 773 771 770 768 766 764 763 761 761 761 760 759 758 757 757 757 757 758 758 758 759 759 759 760 760 760 761 761 762 763 763 764 765 765
841 841 840 839 838 837 836 835 834 832 831 829 828 827 826 825 824 824 823 822 821 820 819 818 817 816 815 813 812 811 810 809 807 806 804 803 801 799 797 795 794 792 790 787 784 782 780 778 776 774 772 771 769 768 768 766 764 762 761 760 760 759 758 758 757 756 756 756 757 757 758 758 759 759 759 759 760 760 761 762 763 764 764 765 765
842 842 841 840 839 838 837 836 834 833 831 830 829 828 827 826 826 825 824 823 822 821 820 819 818 817 816 814 813 812 811 809 808 806 804 803 801 799 798 796 794 792 790 788 785 782 780 778 775 773 771 770 768 767 766 765 763 762 761 760 759 759 758 756 756 755 755 756 756 757 757 758 758 759 759 759 759 760 761 762 763 764 765 765 766
844 843 842 841 840 839 838 837 835 834 833 832 831 830 829 828 827 827 826 825 824 823 821 820 819 818 817 815 814 813 811 810 808 807 805 803 801 799 798 796 794 792 790 788 786 783 781 779 776 774 771 770 768 766 765 764 763 762 760 760 759 758 757 755 754 754 755 755 755 756 756 757 757 758 758 759 759 760 761 762 763 764 765 765 766
845 844 843 842 841 840 839 838 836 835 834 833 833 832 831 830 829 828 827 826 825 824 823 822 821 819 818 816 815 814 812 811 809 807 805 803 801 800 798 797 795 793 791 789 786 784 782 780 778 775 772 770 768 766 764 764 763 761 759 758 758 757 756 755 753 753 754 754 754 755 755 755 756 757 758 759 759 760 761 762 763 764 765 766 766
846 845 844 843 842 841 840 839 838 837 836 835 834 833 832 832 831 829 828 827 826 825 824 823 822 820 819 818 816 815 813 812 810 808 806 804 802 801 799 797 795 793 791 789 787 785 783 780 778 776 774 771 768 766 764 763 762 761 759 756 756 756 755 753 752 752 752 752 753 754 754 754 755 757 758 759 759 760 761 762 763 764 765 766 767
848 847 846 845 843 842 841 840 840 839 838 837 835 834 833 832 831 830 829 828 827 826 825 824 822 821 820 819 817 815 814 812 811 809 807 805 803 802 800 798 796 794 792 790 788 786 783 781 778 776 774 772 769 766 764 762 761 760 758 755 754 754 754 753 751 750 750 750 751 753 754 753 755 757 758 758 760 760 761 762 763 764 765 766 767
849 848 847 846 845 844 843 842 842 841 840 838 837 836 834 833 832 831 830 829 828 827 826 825 823 822 821 820 818 816 815 813 812 810 808 806 804 802 800 798 797 795 793 790 788 786 784 781 779 776 773 771 769 767 764 762 760 758 757 754 753 753 753 753 752 750 748 748 750 752 753 753 754 756 757 758 759 760 760 761 762 764 765 766 767
850 849 848 847 847 846 845 844 844 843 841 840 838 837 835 834 833 832 831 830 829 828 827 826 824 823 822 820 819 817 816 814 812 810 808 806 804 802 801 799 797 795 793 791 788 786 784 782 780 777 773 770 768 766 764 761 759 757 755 754 753 752 751 752 752 750 748 747 748 750 752 753 754 755 757 758 759 760 760 761 762 763 765 766 767
852 851 850 849 849 848 847 847 846 845 843 842 840 839 837 836 835 833 833 831 830 829 827 827 825 824 823 821 820 818 816 814 813 810 808 806 805 803 801 799 797 795 793 791 790 788 786 783 781 778 775 771 768 766 765 761 758 756 754 752 751 751 750 750 749 749 749 748 747 748 750 752 753 754 756 757 759 760 761 762 762 763 764 766 767
853 853 852 852 851 850 850 849 848 847 846 844 843 841 840 839 837 836 834 833 831 830 829 828 827 825 824 822 820 819 817 815 813 811 809 807 805 803 801 799 797 795 793 792 790 788 786 784 781 778 776 773 770 767 766 763 760 758 755 752 750 749 748 748 747 748 749 748 746 746 748 749 751 753 755 757 758 760 761 761 762 763 764 765 766
855 855 854 854 853 852 852 851 850 849 848 847 845 843 842 840 839 837 835 834 833 832 831 829 828 826 824 823 821 819 817 815 813 811 809 808 806 804 801 799 797 795 793 791 789 788 786 784 782 779 777 774 771 768 767 765 763 760 756 754 751 749 748 746 746 746 746 747 746 745 745 747 748 751 754 756 757 759 760 761 762 763 764 765 766
857 856 856 855 855 854 854 853 852 851 849 848 847 845 843 841 840 839 837 835 834 833 831 829 827 826 825 823 821 820 818 816 814 812 810 809 807 804 802 800 798 796 794 792 790 787 786 783 781 779 777 774 771 768 766 766 764 761 758 756 753 751 750 746 745 744 744 745 744 744 745 746 747 749 752 755 756 758 760 761 762 763 764 765 766
859 858 858 857 857 856 855 854 853 852 851 849 848 846 844 842 840 838 836 835 833 832 831 830 829 827 826 824 823 821 819 817 815 813 811 809 807 805 803 801 799 797 795 793 791 788 786 784 781 779 777 775 772 768 766 765 763 762 760 758 755 753 750 747 745 744 742 742 742 743 745 745 746 748 750 753 755 757 759 761 762 763 765 766 767
860 860 859 859 858 857 856 856 854 853 852 850 849 847 845 843 841 839 837 836 836 835 834 832 831 829 827 826 824 822 820 817 815 814 812 810 808 805 804 802 799 797 795 793 791 788 786 783 781 779 777 775 772 769 765 763 762 760 759 758 756 754 751 748 747 745 742 742 742 742 743 745 747 748 748 751 753 756 758 760 762 763 765 766 767
862 861 861 860 859 859 858 857 856 854 853 851 850 849 847 845 843 842 841 840 839 837 836 834 832 831 829 827 825 822 820 818 816 814 812 810 808 806 804 802 800 797 795 793 790 788 786 783 781 778 776 774 772 769 765 763 760 759 758 756 754 752 751 748 746 744 743 743 743 741 740 743 747 748 748 750 752 755 758 760 761 763 765 767 768
863 863 862 861 860 860 859 858 857 856 855 854 852 851 849 847 845 844 843 841 840 838 836 835 833 831 830 827 825 823 821 819 817 815 813 811 808 807 805 803 801 799 796 794 791 788 785 782 779 777 774 772 771 768 765 762 760 757 755 754 752 750 749 746 743 742 742 742 742 741 739 740 744 747 748 751 752 754 758 759 761 763 766 767 768
864 864 863 862 862 861 860 859 859 857 856 855 854 852 850 848 847 845 844 842 841 839 837 835 833 831 829 827 825 823 821 819 817 815 813 811 809 808 806 804 802 800 797 794 791 788 785 781 778 775 773 771 769 767 764 762 760 757 754 752 749 747 745 743 741 739 739 741 741 739 738 739 743 746 748 750 753 755 756 759 761 764 765 767 769
865 865 864 863 863 862 861 861 860 859 858 857 855 853 852 850 848 846 845 843 841 839 837 835 833 831 829 828 826 824 822 820 818 816 814 812 810 809 807 805 802 800 797 794 790 787 783 780 777 775 772 770 767 765 763 760 758 755 753 750 747 745 743 740 738 736 736 737 738 737 738 740 742 746 749 750 753 755 757 759 761 764 765 767 769
866 866 865 865 864 863 863 862 862 861 859 858 856 855 853 851 850 848 846 844 842 840 838 836 834 832 830 828 827 825 823 821 819 817 815 813 811 810 807 805 802 799 796 793 790 787 783 780 777 774 771 768 766 763 761 758 756 753 750 748 746 743 741 739 736 735 734 734 735 735 737 740 742 745 749 752 754 756 758 760 761 764 766 767 769